Regional Weather Roundup
Issued by NWS

Home | Current Version | Previous Version | Text Only | Print | Product List | Glossary Off
Versions: 1 2 3 4 5 6 7 8 9 10 11 12 13 14 15 16 17 18 19 20 21 22 23 24 25 26 27 28 29 30 31 32 33 34 35 36 37 38 39 40 41 42 43 44 45 46 47 48 49 50

889
ASUS43 KIND 231659
RWRIN

WEATHER ROUNDUP FOR INDIANA
NATIONAL WEATHER SERVICE INDIANAPOLIS IN
100 PM EDT FRI JUN 23 2017

NOTE: "FAIR" INDICATES FEW OR NO CLOUDS BELOW 12,000 FEET WITH NO
SIGNIFICANT WEATHER AND/OR OBSTRUCTIONS TO VISIBILITY.

* - STATION DOES NOT REPORT WEATHER SUCH AS PRECIPITATION OR FOG.

+ - STATION NOT QUALITY CONTROLLED BY THE NATIONAL WEATHER SERVICE.
    USE DATA WITH CAUTION...ESPECIALLY DEWPOINT AND RELATIVE
    HUMIDITY OBSERVATIONS.

INZ001>003-010>013-019-020-231800-
NORTHWEST INDIANA

CITY           SKY/WX    TMP DP  RH WIND       PRES   REMARKS
GARY /AIRPORT/ PTSUNNY   72  61  68 N9        29.72R
KNOX *+        CLOUDY    68  61  77 NW12      29.70R
MONTICELLO +   CLOUDY    71  67  87 N7        29.69R
RENSSELAER +   CLOUDY    70  64  83 N9        29.71R

$$

LMZ046-743>745-231800-
SOUTHERN LAKE MICHIGAN

STATION/POSITION TIME  TEMP    WIND        PRES    WAVE
                       AIR SEA DIR/SP/G            HT
                 (UTC) (F)     (DEG/KT/KT) (MB)    (FT)
BURNS HARBOR     1640   66     330/ 12/ 14 1006.4R
MICHIGAN CITY    1630   66     330/ 16/ 17   N/A
5NW MICH CITY    1650   66 68  330/ 12/ 16   N/A     2

$$

INZ004-005-014>016-021>024-231800-
NORTH CENTRAL INDIANA

CITY           SKY/WX    TMP DP  RH WIND       PRES   REMARKS
GOSHEN         CLOUDY    71  63  75 NW12      29.67R
SOUTH BEND     CLOUDY    68  63  84 NW15      29.68R

$$

INZ006>009-017-018-025>027-231800-
NORTHEAST INDIANA

CITY           SKY/WX    TMP DP  RH WIND       PRES   REMARKS
FORT WAYNE     CLOUDY    72  67  84 S14       29.66S
KENDALLVILLE + CLOUDY   N/A N/A N/A NW7       29.66R

$$

INZ028-029-035-036-043>045-051>053-231800-
WEST CENTRAL INDIANA

CITY           SKY/WX    TMP DP  RH WIND       PRES   REMARKS
CRAWFORDSVL +  CLOUDY    67  67 100 SW6       29.72R
LAFAYETTE      CLOUDY    70  68  93 W6        29.70R
TERRE HAUTE    LGT RAIN  72  69  90 S8        29.70F

$$

INZ030>032-037>040-046>048-054>057-064-065-231800-
CENTRAL INDIANA

CITY           SKY/WX    TMP DP  RH WIND       PRES   REMARKS
ANDERSON       RAIN      68  64  88 SW6       29.72F
COLUMBUS       LGT RAIN  73  70  88 SW13      29.74S
INDIANAPOLIS   RAIN      69  68  96 W5        29.73S FOG
-EAGLE CREEK   HVY RAIN  69  67  93 S8        29.71S VSB 3/4
KOKOMO +       LGT RAIN  71  68  90 S12       29.70R
MT COMFORT *+  CLOUDY    66  66 100 CALM      29.74S VSB<1/4
SHELBYVILLE    LGT RAIN  76  71  85 SW15      29.73R

$$

INZ033-034-041-042-049-050-058-059-231800-
EAST CENTRAL INDIANA

CITY           SKY/WX    TMP DP  RH WIND       PRES   REMARKS
MUNCIE         LGT RAIN  69  66  90 S9        29.69F FOG
RICHMOND +     DRIZZLE   72  70  94 SW12      29.76R

$$

INZ060-061-067>069-081>083-085>088-231800-
SOUTHWEST INDIANA

CITY           SKY/WX    TMP DP  RH WIND       PRES   REMARKS
EVANSVILLE     HVY RAIN  74  72  93 W6        29.73R FOG
HUNTINGBURG *+ RAIN      74  73  97 S8        29.73F FOG

$$

INZ062-063-066-070>080-084-089>092-231800-
SOUTH CENTRAL AND SOUTHEAST INDIANA

CITY           SKY/WX    TMP DP  RH WIND       PRES   REMARKS
BLOOMINGTON    LGT RAIN  74  70  87 SW10      29.75R
MADISON *+     CLOUDY    72  70  94 W10       29.78S
SEYMOUR +      HVY RAIN  73  72  94 W14       29.75S

$$





USA.gov is the U.S. government's official web portal to all federal, state and local government web resources and services.